NOAA 16 DEB

Satellite information

Favourite Embed

Satellite Type and Status

DEBRISIN ORBIT

Key statistics

Satellite NOAA 16 DEB at a glance.

Uptime

9170

Days in orbit

Revolutions

≈ 14.9

Per day

Orbit

SSO

Sun Synchronous Orbit

Inclination

98.8

Latest

Satellite identification and parameters

Extended collection of information and parameters for NOAA 16 DEB.

Object identification

Identified? True

Debris? True

Object name: NOAA 16 DEB

International designator: 2000-055NV

Object number (NORAD): 41656

Object ID (CCSDS): 41656

Country: UNITED STATES OF AMERICA (US)

Current information (Y/N): Y

RCS size: SMALL

Orbital parameters

Period: 96.758 minutes

Inclination: 98.8494 deg

SMA: 6981.558 km

Apoapsis: 610.568 km

Periapsis: 596.278 km

RAAN: 85.5586 deg

Eccentricy: 0.0010234

Argument of periapsis: 280.8044 deg

Mean anomaly: 79.2017 deg

Mean motion: 14.88244416 rev/day

Mean motion (dot): 0.0013292 rev/day2

B* drag term: 0.014119616 1/REarth

Two-line elements (TLE)

Creation date: Oct. 29, 2025, 7:31 p.m.

Reference frame: TEME

Reference center: EARTH

Epoch: Oct. 28, 2025, 8:58 p.m. UTC

TLE line 0: 0 NOAA 16 DEB

TLE line 1: 1 41656U 00055NV 25301.87401230 .00132920 00000-0 14120-1 0 9994

TLE line 2: 2 41656 98.8494 85.5586 0010234 280.8044 79.2017 14.88244416494554

Live tracking on map

Real-time ground track for satellite NOAA 16 DEB.

In-orbit conjunctions

A list of the most updated potential collisions computed for object NOAA 16 DEB.

Target Orbit TCA Probability of collision Miss distance Type
COSMOS 2251 DEB LEO 2025-08-23 12:01:45 0.0001254007 163.0 (m) DEBRIS
COSMOS 1818 COOLANT LEO 2024-09-10 13:02:57 0.000175573 33.0 (m) DEBRIS
CZ-2C R/B SSO 2024-08-18 08:28:20 0.0001621232 636.0 (m) ROCKET BODY
COSMOS 836 LEO 2024-07-27 17:49:42 0.0003642681 140.0 (m) PAYLOAD
COSMOS 1818 LEO 2024-07-01 00:17:00 0.0001354529 838.0 (m) PAYLOAD

Associated space launch

The NOAA K, L and M POES satellites begin the fifth generation of improved environmental monitoring in support of NOAA missions. The instrument payload has significant improvements and additions/deletions. The instrument changes have effected the spacecraft subsystems and data formats.

NOAA 16 DEB was lifted into orbit during the mission ‘Titan II SLV | NOAA 16’, on board a Titan II SLV space rocket.

The launch took place on Sept. 21, 2000, 10:22 a.m. from Space Launch Complex 4W.

For more information about the launch, click the button.

Launch to space Titan II SLV | NOAA 16
Titan II SLV | NOAA 16

Agency: N/A

Status: Launch Successful

Launch date: Sept. 21, 2000, 10:22 a.m. UTC

Rocket: Titan II SLV

Launch pad: Space Launch Complex 4W

Location: Vandenberg SFB, CA, USA

...

Latest news about this satellite

There are no fresh news available about this satellite. Check back as we update our databases every day.


Newsletter sign-up

Weekly statistics, charts and insights to help you stay on top of the space industry.